Weather History for KRHI - July, 2013

Change the Weather History Date:

Wednesday, July 17, 2013

  Actual Average Record
Temperature  
Mean Temperature 80 °F 67 °F  
Max Temperature 90 °F 79 °F 95 °F (2005)
Min Temperature 69 °F 55 °F 42 °F (1911)
Degree Days  
Heating Degree Days 0 2  
Month to date heating degree days 10 34  
Since 1 June heating degree days 184 168  
Since 1 July heating degree days 10 34  
Cooling Degree Days 15 4  
Month to date cooling degree days 107 58  
Year to date cooling degree days 161 123  
Since 1 June cooling degree days 147 111  
Growing Degree Days 29 (Base 50)    
Moisture  
Dew Point 67 °F    
Average Humidity 71    
Maximum Humidity 97    
Minimum Humidity 44    
Precipitation  
Precipitation 0.00 in 0.14 in 1.25 in (1991)
Month to date precipitation 1.59 2.29  
Year to date precipitation 20.22 15.86  
Snow  
Snow 0.00 in - 0.00 in ()
Month to date snowfall 0.0  
Since 1 June snowfall 0.0  
Since 1 July snowfall 0.0  
Snow Depth 0.00 in    
Sea Level Pressure  
Sea Level Pressure 30.22 in    
Wind  
Wind Speed 7 mph (WSW)    
Max Wind Speed 18 mph    
Max Gust Speed 25 mph    
Visibility 10 miles    
Events      
T = Trace of Precipitation, MM = Missing Value Source: NWS Daily Summary

Daily Weather History Graph

Daily Weather History Graph

Search for Another Location

Airport or City:

Trip Planner

Search our weather history database for the weather conditions in past years. The results will help you decide how hot, cold, wet, or windy it might be!

Date:

Astronomy

Jul. 17, 2013 Rise Set
Actual Time 5:25 AM CDT 8:42 PM CDT
Civil Twilight 4:49 AM CDT 9:18 PM CDT
Nautical Twilight 4:01 AM CDT 10:05 PM CDT
Astronomical Twilight 3:02 AM CDT 11:04 PM CDT
Moon 3:27 PM CDT (7/17) 12:38 AM CDT (7/17)
Length of Visible Light 16h 29m
Length of Day
15h 16m
Waxing Gibbous, 67% of the Moon is Illuminated
Jul 17
Waxing Gibbous
Jul 22
Full
Jul 29
Last Quarter
Aug 6
New
Aug 14
First Quarter

Hourly Weather History & Observations

Time (CDT) Temp. Heat Index Dew Point Humidity Pressure Visibility Wind Dir Wind Speed Gust Speed Precip Events Conditions
12:53 AM 71.1 °F - 69.1 °F 93% 30.25 in 9.0 mi Calm Calm - N/A   Clear
1:53 AM 71.1 °F - 69.1 °F 93% 30.24 in 10.0 mi West 3.5 mph - N/A   Clear
2:53 AM 72.0 °F - 69.1 °F 91% 30.24 in 10.0 mi WSW 3.5 mph - N/A   Clear
3:53 AM 70.0 °F - 68.0 °F 93% 30.25 in 8.0 mi West 3.5 mph - N/A   Clear
4:53 AM 69.1 °F - 68.0 °F 96% 30.25 in 6.0 mi West 3.5 mph - N/A   Clear
5:53 AM 70.0 °F - 68.0 °F 93% 30.26 in 5.0 mi Calm Calm - N/A   Clear
6:53 AM 73.9 °F - 70.0 °F 87% 30.26 in 9.0 mi WSW 4.6 mph - N/A   Clear
7:53 AM 78.1 °F - 69.1 °F 74% 30.27 in 10.0 mi West 6.9 mph - N/A   Clear
8:53 AM 80.1 °F 82.3 °F 66.9 °F 64% 30.27 in 10.0 mi WNW 6.9 mph - N/A   Scattered Clouds
9:53 AM 82.9 °F 85.4 °F 66.9 °F 58% 30.27 in 10.0 mi West 9.2 mph - N/A   Partly Cloudy
10:53 AM 84.9 °F 86.6 °F 64.9 °F 51% 30.26 in 10.0 mi WSW 8.1 mph - N/A   Partly Cloudy
11:53 AM 87.1 °F 88.9 °F 64.9 °F 48% 30.26 in 10.0 mi WSW 10.4 mph 16.1 mph N/A   Partly Cloudy
12:53 PM 88.0 °F 89.6 °F 64.9 °F 46% 30.25 in 10.0 mi SW 11.5 mph 18.4 mph N/A   Partly Cloudy
1:53 PM 89.1 °F 91.0 °F 64.9 °F 45% 30.23 in 10.0 mi West 10.4 mph - N/A   Partly Cloudy
2:53 PM 89.1 °F 91.0 °F 64.9 °F 45% 30.20 in 10.0 mi SW 15.0 mph 21.9 mph N/A   Scattered Clouds
3:53 PM 89.1 °F 91.0 °F 64.9 °F 45% 30.19 in 10.0 mi West 15.0 mph 19.6 mph N/A   Partly Cloudy
4:53 PM 89.1 °F 91.0 °F 64.9 °F 45% 30.19 in 10.0 mi WSW 12.7 mph 20.7 mph N/A   Scattered Clouds
5:53 PM 87.1 °F 88.9 °F 64.9 °F 48% 30.17 in 10.0 mi West 15.0 mph 19.6 mph N/A   Clear
6:53 PM 86.0 °F 88.8 °F 66.9 °F 53% 30.16 in 10.0 mi WSW 8.1 mph - N/A   Clear
7:53 PM 82.0 °F 84.1 °F 66.0 °F 58% 30.15 in 10.0 mi WSW 6.9 mph - N/A   Clear
8:53 PM 75.9 °F - 66.9 °F 74% 30.17 in 10.0 mi WSW 3.5 mph - N/A   Clear
9:53 PM 73.9 °F - 66.9 °F 79% 30.16 in 10.0 mi Calm Calm - N/A   Clear
10:53 PM 73.0 °F - 66.9 °F 81% 30.15 in 10.0 mi Calm Calm - N/A   Clear
11:53 PM 72.0 °F - 66.9 °F 84% 30.15 in 10.0 mi West 3.5 mph - N/A   Clear